Location: Góry Miechowskie
(50.3599°N, 20.1803°E)
Time: 07:30:30
(UTC+00:00)

Tiros 1 - All Passes

Search period start: 19 September 2024 00:00
Search period end: 29 September 2024 00:00
Orbit: 623 x 655 km, 48.4° (Epoch: 19 September)

Date Brightness Start Highest point End Pass type
(mag) Time Alt. Az. Time Alt. Az. Time Alt. Az.
19 Sep - 13:02:56 10° SW 13:07:03 34° SSE 13:11:11 10° E daylight
19 Sep - 14:44:08 10° WSW 14:48:41 66° S 14:53:16 10° E daylight
19 Sep - 16:25:59 10° W 16:30:32 61° SSW 16:35:07 10° ESE daylight
19 Sep - 18:08:10 10° W 18:12:05 28° SSW 18:16:01 10° SSE visible
20 Sep - 11:45:49 10° S 11:48:58 19° SE 11:52:08 10° E daylight
20 Sep - 13:25:52 10° SW 13:30:18 49° SSE 13:34:44 10° E daylight
20 Sep - 15:07:31 10° W 15:12:05 70° S 15:16:41 10° E daylight
20 Sep - 16:49:27 10° W 16:53:52 46° SSW 16:58:17 10° SE daylight
20 Sep - 18:32:14 10° WSW 18:35:07 16° SW 18:38:02 10° S visible
21 Sep - 12:08:02 10° SSW 12:12:03 30° SSE 12:16:04 10° E daylight
21 Sep - 13:49:06 10° WSW 13:53:38 64° S 13:58:12 10° E daylight
21 Sep - 15:30:56 10° W 15:35:29 64° S 15:40:04 10° ESE daylight
21 Sep - 17:13:02 10° W 17:17:05 30° SSW 17:21:07 10° SSE visible
22 Sep - 10:51:09 10° S 10:54:01 16° SE 10:56:52 10° ESE daylight
22 Sep - 12:30:53 10° SW 12:35:15 46° SSE 12:39:39 10° E daylight
22 Sep - 14:12:27 10° W 14:17:01 70° S 14:21:37 10° E daylight
22 Sep - 15:54:24 10° W 15:58:49 49° SSW 16:03:16 10° SE daylight
22 Sep - 17:36:58 10° W 17:40:09 19° SW 17:43:21 10° S visible
23 Sep - 11:13:09 10° SSW 11:17:02 28° SSE 11:20:55 10° E daylight
23 Sep - 12:54:03 10° WSW 12:58:34 61° SSE 13:03:06 10° E daylight
23 Sep - 14:35:52 10° W 14:40:25 66° S 14:44:59 10° ESE daylight
23 Sep - 16:17:55 10° W 16:22:03 33° SSW 16:26:12 10° SE daylight
24 Sep - 09:56:33 10° S 09:59:01 14° SE 10:01:29 10° ESE daylight
24 Sep - 11:35:53 10° SW 11:40:12 42° SSE 11:44:32 10° E daylight
24 Sep - 13:17:22 10° W 13:21:56 70° S 13:26:31 10° E daylight
24 Sep - 14:59:18 10° W 15:03:45 53° SSW 15:08:14 10° ESE daylight
24 Sep - 16:41:43 10° W 16:45:09 21° SW 16:48:34 10° SSE daylight
25 Sep - 10:18:17 10° SSW 10:22:00 25° SSE 10:25:44 10° E daylight
25 Sep - 11:58:59 10° WSW 12:03:29 58° SSE 12:08:00 10° E daylight
25 Sep - 13:40:46 10° W 13:45:19 68° S 13:49:54 10° ESE daylight
25 Sep - 15:22:47 10° W 15:27:00 37° SSW 15:31:14 10° SE daylight
25 Sep - 17:06:36 10° WSW 17:08:05 11° SW 17:09:33 10° SSW visible
26 Sep - 09:02:05 10° SSE 09:04:01 13° SE 09:05:58 10° ESE daylight
26 Sep - 10:40:53 10° SW 10:45:08 39° SSE 10:49:24 10° E daylight
26 Sep - 12:22:16 10° WSW 12:26:49 69° S 12:31:25 10° E daylight
26 Sep - 14:04:11 10° W 14:08:40 56° SSW 14:13:10 10° ESE daylight
26 Sep - 15:46:30 10° W 15:50:07 23° SW 15:53:45 10° SSE daylight
27 Sep - 09:23:25 10° SSW 09:26:58 22° SE 09:30:31 10° E daylight
27 Sep - 11:03:54 10° WSW 11:08:23 55° SSE 11:12:52 10° E daylight
27 Sep - 12:45:39 10° W 12:50:13 69° S 12:54:47 10° ESE daylight
27 Sep - 14:27:38 10° W 14:31:56 40° SSW 14:36:13 10° SE daylight
27 Sep - 16:10:55 10° WSW 16:13:04 13° SW 16:15:13 10° SSW daylight
28 Sep - 08:07:55 10° SSE 08:09:00 11° SE 08:10:07 10° ESE daylight
28 Sep - 09:45:53 10° SW 09:50:03 35° SSE 09:54:15 10° E daylight
28 Sep - 11:27:09 10° WSW 11:31:43 67° S 11:36:17 10° E daylight
28 Sep - 13:09:03 10° W 13:13:34 59° SSW 13:18:05 10° ESE daylight
28 Sep - 14:51:16 10° W 14:55:04 26° SSW 14:58:51 10° SSE daylight
